[ hide orbit diagram ]
For accurate long-term ephemerides, please instead use our Horizons system.This orbit viewer was implemented using two-body methods, and hence should not be used for determining accurate long-term trajectories (over several years or decades) or planetary encounter circumstances.
Orbital Elements at Epoch 2459000.5 (2020-May-31.0) TDB
Reference: JPL 20 (heliocentric ecliptic J2000)
Element | Value | Uncertainty (1-sigma) | Units |
e | .1718022722398588 | 5.3844e-08 | |
a | 2.605203251969812 | 1.7529e-08 | au |
q | 2.157623413634729 | 1.4535e-07 | au |
i | 12.78672134970754 | 8.1862e-06 | deg |
node | 9.990376181684596 | 1.5927e-05 | deg |
peri | 48.52381045052279 | 3.1541e-05 | deg |
M | 97.58721439583336 | 2.4967e-05 | deg |
tp | 2458584.157002269722 (2019-Apr-10.65700227) | 0.00010465 | TDB |
period | 1535.892587065173 4.21 | 1.5501e-05 4.244e-08 | d yr |
n | .2343913910593828 | 2.3656e-09 | deg/d |
Q | 3.052783090304895 | 2.054e-08 | au |
|
| | Orbit Determination Parameters
Additional Information
|
[ show covariance matrix ]
Physical Parameter Table
Parameter |
Symbol |
Value |
Units |
Sigma |
Reference |
Notes |
absolute magnitude |
H |
15.9 |
|
n/a |
MPO459741 |
|
rotation period |
rot_per |
20.8817 |
h |
n/a |
LCDB (Rev. 2020-October); Warner et al., 2009 |
Result based on less than full coverage, so that the period may be wrong by 30 percent or so. Published Reference List: [Pal, A.; Szakats, R.; Kiss, C.; Bodi, A.; et al. (2019) Ap. J. Supl. Ser. 247, id.26.] |
|
161867 (2007 CD) Discovered 2007-Feb-05 by Lowe, A. at Mayhill |
Reference: 20070828/Numbers.arc | Last Updated: 2007-08-30 |
|
[ show close-approach data ]
|